{"data":{"norad_id":53278,"epoch":"2026-05-24T20:44:56.834880Z","epoch_age_seconds":86514,"freshness":"FRESH","line1":"1 53278U 22086AN  26144.86454670 -.00000623  00000+0 -21108-4 0  9998","line2":"2 53278  53.2138 202.1567 0000643  93.0947 267.0119 15.08830822212690","mean_motion":15.08830822,"eccentricity":6.43e-5,"inclination_deg":53.2138,"raan_deg":202.1567,"arg_perigee_deg":93.0947,"mean_anomaly_deg":267.0119,"bstar":-2.1108e-5,"rev_number":21269,"period_min":95.438135210629,"perigee_km":539.32662106773,"apogee_km":540.21626409345,"semimajor_km":6917.9084425806,"source":"CELESTRAK","updated_at":"2026-05-25T13:38:17.367547Z"}}